Flag for U.S.A. Weather past 2 weeks in Stockton, California, U.S.A.

Now
81 °F

Sunny.


Feels Like: 81 °F
Forecast: 66 / 105 °F
Wind: 7 mph from Northwest

Location: Stockton Metropolitan Airport

Current Time: Jun 30, 2015 at 10:12:10 AM

Latest Report: Jun 30, 2015 at 8:55 AM


Visibility: 10 mi

Pressure: 29.86 "Hg

Humidity: 42%

Dew point: 56 °F

Location of StocktonLocation

Historic Weather in Stockton — Graph

°F

Stockton temperature yesterday

Maximum temperature yesterday: 97 °F (at 4:55 PM)
Minimum temperature yesterday: 60 °F (at 5:55 AM)
Average temperature yesterday: 78 °F

Past Weeks' High & Low Weather Summary

 TemperatureHumidityPressure
High102 °F (Jun 26, 4:55 PM)90% (Jun 29, 5:55 AM)30.01 "Hg (Jun 29, 5:55 AM)
Low53 °F (Jun 16, 5:55 AM)12% (Jun 19, 5:55 PM)29.78 "Hg (Jun 20, 6:55 PM)
Average77 °F43%29.88 "Hg
* Reported Jun 15 8:55 AM — Jun 30 8:55 AM, Stockton, Weather by CustomWeather, © 2015

Note: Actual official high and low records may vary slightly from our data, if they occured in-between our weather recording intervals... More about our weather records

Advertising

Stockton weather history for previous 24 hours

 ConditionsComfort  
Time TempWeatherWind HumidityBarometerVisibility
8:55 AM
Tue, Jun 30
81 °FSunny.7 mph42%29.86 "Hg10 mi
7:55 AM78 °FSunny.8 mph45%29.85 "Hg10 mi
6:55 AM70 °FSunny.6 mph64%29.85 "Hg10 mi
5:55 AM66 °FClear.6 mph70%29.84 "Hg10 mi
4:55 AM68 °FClear.No wind63%29.83 "Hg10 mi
3:55 AM70 °FClear.3 mph57%29.84 "Hg10 mi
2:55 AM68 °FClear.No wind65%29.85 "Hg10 mi
1:55 AM71 °FClear.No wind55%29.86 "Hg10 mi
12:55 AM72 °FClear.5 mph53%29.86 "Hg10 mi
11:55 PM
Mon, Jun 29
76 °FClear.No wind42%29.86 "Hg10 mi
10:55 PM80 °FClear.12 mph35%29.86 "Hg10 mi
9:55 PM80 °FClear.9 mph44%29.85 "Hg10 mi
8:55 PM84 °FSunny.9 mph36%29.84 "Hg10 mi
7:55 PM91 °FSunny.13 mph18%29.84 "Hg10 mi
6:55 PM93 °FSunny.10 mph15%29.83 "Hg10 mi
5:55 PM97 °FSunny.10 mph16%29.84 "Hg10 mi
4:55 PM97 °FSunny.10 mph21%29.85 "Hg10 mi
3:55 PM96 °FSunny.12 mph23%29.86 "Hg10 mi
2:55 PM94 °FSunny.14 mph21%29.88 "Hg10 mi
1:55 PM92 °FSunny.10 mph28%29.90 "Hg10 mi
12:55 PM87 °FSunny.9 mph31%29.93 "Hg10 mi
11:55 AM84 °FSunny.13 mph36%29.93 "Hg10 mi
10:55 AM80 °FSunny.10 mph44%29.95 "Hg10 mi
Weather by CustomWeather, © 2015

See weather overviewHow to use our weather pages